User: anonymous   Login
Location: Unspecified
(0.0000°N, 0.0000°E)
Time: 14:32:42
(UTC+01:00)
Language:

Milstar 3 - Orbit

View from above orbital plane
View from above orbital plane
View from above satellite
View from above satellite

Ground track
Ground track

The orbit data is extracted from the following two-line orbital elements,

1 25724U 99023A   16028.78821162 0.00000000  00000-0  00000-0 0    08
2 25724  28.2236  55.5018 2134299 146.6215 213.3780  9.37467173    05
Epoch (UTC): 28 January 2016 18:55:01
Eccentricity: 0.2134299
inclination: 28.2236°
perigee height: 1095 km
apogee height: 5150 km
right ascension of ascending node: 55.5018°
argument of perigee: 146.6215°
revolutions per day: 9.37467173
mean anomaly at epoch: 213.3780°
orbit number at epoch: 0

The dashed part of the orbit path shows where the satellite is in the earth's shadow,  

DLR